(48) Doris
ephemeris date magn radius delta ra dec elong phase
Today19 Apr 202412.92.953 AU3.149 AU06h36m+17°32'69.6°18.6°
Opposition20 Mar 202511.43.154 AU2.158 AU11h58m-00°31'179.4°0.2°
(48) Doris - 2024-04-19
astro.vanbuitenen.nl


 
-1 year
-1 month
-1 day
Now
+1 day
+1 month
+1 year

The interactive orbit chart above shows the body's path through the solar system and its position at the given date. Green and blue lines are shown perpendicular to the ecliptic plane: Green if the path is above the ecliptic plane, blue if it is below. (Left-click and drag to rotate the view; Right-click and drag to move the view; Use scroll wheel to zoom in our out.)

The orbital elements of Doris are:

            e (Eccentricity)                : 0.0666440
            a (Semimajor axis)              : 3.1118427
            i (Inclination)                 : 6.55892
            Ω (Longitude of ascending node) : 183.43111
            ω (Argument of perihelion)      : 251.02191
            M (Mean anomaly)                : 34.33249
            Epoch                           : 2024 Mar 31

            L (Longitude of perihelion)     : 254.33702
            B (Latitude of perihelion)      : -6.20096
            P (Orbital period in years)     : 5.49            
        

The light curve chart below shows the estimated development of the minor planet's magnitude.


The all-sky chart below shows the path of the minor planet over the same period as the light curve. The current position is marked yellow.





The following chart shows the path of the minor planet in the next few days. The field of view is optimized for (~10x50) binoculars and finderscopes. A more printer-friendly version of the same chart can be found below.




Ephemerides:
Date       Time       RA (2000)    DEC (2000)    delta   radius  elong  phase   PA    magn
2024-04-19 00:00 UT   06 36 05.9   +17 32 26     3.149    2.953   69.6   18.6    96   12.9 
2024-04-19 06:32 UT   06 36 25.5   +17 32 39     3.152    2.954   69.5   18.6    96   12.9 
2024-04-20 00:00 UT   06 37 18.0   +17 33 13     3.162    2.954   69.0   18.5    96   13.0 
2024-04-21 00:00 UT   06 38 30.6   +17 33 57     3.175    2.954   68.3   18.4    96   13.0 
2024-04-22 00:00 UT   06 39 43.9   +17 34 36     3.188    2.955   67.6   18.3    96   13.0 
2024-04-23 00:00 UT   06 40 57.7   +17 35 12     3.201    2.955   66.9   18.2    96   13.0 
2024-04-24 00:00 UT   06 42 12.0   +17 35 44     3.214    2.956   66.2   18.1    97   13.0 
2024-04-25 00:00 UT   06 43 26.9   +17 36 12     3.227    2.956   65.6   18.0    97   13.0 
2024-04-26 00:00 UT   06 44 42.3   +17 36 36     3.240    2.957   64.9   17.9    97   13.0 
2024-04-27 00:00 UT   06 45 58.3   +17 36 56     3.252    2.957   64.2   17.8    97   13.0 
2024-04-28 00:00 UT   06 47 14.8   +17 37 12     3.265    2.958   63.6   17.7    97   13.0 
2024-04-29 00:00 UT   06 48 31.8   +17 37 24     3.278    2.958   62.9   17.6    98   13.0 
2024-04-30 00:00 UT   06 49 49.3   +17 37 33     3.290    2.958   62.2   17.5    98   13.0 
2024-05-01 00:00 UT   06 51 07.2   +17 37 37     3.303    2.959   61.6   17.4    98   13.0 
2024-05-02 00:00 UT   06 52 25.7   +17 37 37     3.315    2.959   60.9   17.3    98   13.0 
2024-05-03 00:00 UT   06 53 44.6   +17 37 33     3.327    2.960   60.3   17.2    98   13.0 
2024-05-04 00:00 UT   06 55 04.0   +17 37 25     3.340    2.960   59.6   17.1    99   13.0 
2024-05-05 00:00 UT   06 56 23.9   +17 37 13     3.352    2.961   59.0   17.0    99   13.0 
2024-05-06 00:00 UT   06 57 44.2   +17 36 57     3.364    2.961   58.3   16.9    99   13.0 
2024-05-07 00:00 UT   06 59 04.9   +17 36 36     3.376    2.962   57.7   16.7    99   13.0 
2024-05-08 00:00 UT   07 00 26.0   +17 36 11     3.388    2.962   57.0   16.6    99   13.0 
2024-05-09 00:00 UT   07 01 47.6   +17 35 43     3.400    2.963   56.4   16.5    99   13.1 
2024-05-10 00:00 UT   07 03 09.5   +17 35 09     3.412    2.963   55.7   16.4   100   13.1 
2024-05-11 00:00 UT   07 04 31.9   +17 34 32     3.423    2.964   55.1   16.2   100   13.1 
2024-05-12 00:00 UT   07 05 54.6   +17 33 51     3.435    2.964   54.5   16.1   100   13.1 
2024-05-13 00:00 UT   07 07 17.7   +17 33 05     3.446    2.965   53.8   16.0   100   13.1 
2024-05-14 00:00 UT   07 08 41.1   +17 32 15     3.458    2.965   53.2   15.8   100   13.1 
2024-05-15 00:00 UT   07 10 04.9   +17 31 20     3.469    2.966   52.6   15.7   101   13.1 
2024-05-16 00:00 UT   07 11 29.1   +17 30 22     3.480    2.966   52.0   15.6   101   13.1 


    Terminology:
            
    delta:  distance between minor planet and earth in AU
    radius: distance between minor planet and sun in AU
    magn:   magnitude (brightness) estimate    
    ra:     right ascension in hours (24h = 360deg)
    dec:    declination in degrees
    elong:  elongation in degrees (angle sun-earth-minor planet)    
    phase:  phase angle in degrees (angle sun-minor planet-earth)        
    AU:     Astronomical Unit (mean distance between earth and sun: 149597870.7 km
    

Orbital elements provided by the MPC (Minor Planet Center).
Calculations by a modified version of AAPlus, a C# implementation of the AA+ project by PJ Naughter from the algorithms presented in the book "Astronomical Algorithms" by Jean Meeus.
NGC2000 dso catalog and star labels from VizieR as provided by the Strasbourg astronomical Data Center.
Tycho2 catalog from the ESO archive.